Flag for U.S.A. Weather past 2 weeks in French Lick, Indiana, U.S.A.

Now
54 °F

Sunny.


Feels Like: 49 °F
Forecast: 40 / 64 °F
Wind: 14 mph from Northeast

Location: Huntingburg Airport

Current Time: Apr 28, 2015 at 10:50:26 AM

Latest Report: Apr 28, 2015 at 10:35 AM


Visibility: 10 mi

Pressure: 30.11 "Hg

Humidity: 54%

Dew point: 37 °F

Location of French LickLocation

Historic Weather in French Lick — Graph

°F

French Lick temperature yesterday

Maximum temperature yesterday: 63 °F (at 2:55 PM)
Minimum temperature yesterday: 39 °F (at 5:55 AM)
Average temperature yesterday: 51 °F

Past Weeks' High & Low Weather Summary

 TemperatureHumidityPressure
High81 °F (Apr 18, 4:55 PM)94% (Apr 18, 4:35 AM)30.18 "Hg (Apr 18, 4:35 AM)
Low34 °F (Apr 24, 5:35 AM)23% (Apr 23, 6:15 PM)29.43 "Hg (Apr 19, 7:35 PM)
Average57 °F63%29.93 "Hg
* Reported Apr 13 9:15 AM — Apr 28 9:35 AM, French Lick, Weather by CustomWeather, © 2015

Note: Actual official high and low records may vary slightly from our data, if they occured in-between our weather recording intervals... More about our weather records

Advertising

French Lick weather history for previous 24 hours

 ConditionsComfort  
Time TempWeatherWind HumidityBarometerVisibility
9:35 AM
Tue, Apr 28
48 °FSunny.10 mph71%30.12 "Hg10 mi
9:15 AM48 °FSunny.10 mph71%30.12 "Hg10 mi
8:55 AM46 °FSunny.7 mph76%30.12 "Hg10 mi
8:35 AM45 °FSunny.7 mph81%30.12 "Hg10 mi
8:15 AM43 °FSunny.7 mph81%30.12 "Hg10 mi
7:55 AM43 °FSunny.6 mph76%30.11 "Hg10 mi
7:35 AM39 °FClear.7 mph81%30.10 "Hg10 mi
7:15 AM39 °FClear.6 mph81%30.10 "Hg10 mi
6:55 AM39 °FClear.7 mph81%30.09 "Hg10 mi
6:35 AM39 °FClear.7 mph81%30.08 "Hg10 mi
6:15 AM39 °FClear.7 mph81%30.08 "Hg10 mi
5:55 AM39 °FClear.7 mph81%30.08 "Hg10 mi
5:35 AM39 °FClear.8 mph81%30.07 "Hg10 mi
5:15 AM39 °FClear.8 mph81%30.07 "Hg10 mi
4:55 AM41 °FClear.7 mph81%30.07 "Hg10 mi
4:35 AM41 °FClear.7 mph81%30.08 "Hg10 mi
4:15 AM43 °FClear.5 mph76%30.07 "Hg10 mi
3:55 AM43 °FClear.6 mph71%30.07 "Hg10 mi
3:35 AM41 °FClear.7 mph76%30.07 "Hg10 mi
3:15 AM43 °FClear.5 mph71%30.07 "Hg10 mi
2:55 AM43 °FClear.5 mph71%30.07 "Hg10 mi
2:35 AM43 °FClear.5 mph76%30.06 "Hg10 mi
2:15 AM43 °FClear.3 mph71%30.07 "Hg10 mi
1:55 AM45 °FClear.3 mph66%30.07 "Hg10 mi
1:35 AM46 °FClear.5 mph62%30.07 "Hg10 mi
1:15 AM46 °FClear.3 mph62%30.07 "Hg10 mi
12:55 AM46 °FClear.5 mph66%30.06 "Hg10 mi
12:35 AM46 °FClear.3 mph66%30.07 "Hg10 mi
12:15 AM48 °FClear.3 mph62%30.06 "Hg10 mi
11:35 PM
Mon, Apr 27
48 °FClear.5 mph62%30.06 "Hg10 mi
11:15 PM48 °FClear.8 mph62%30.06 "Hg10 mi
10:55 PM50 °FClear.9 mph58%30.06 "Hg10 mi
10:35 PM52 °FClear.9 mph54%30.05 "Hg10 mi
10:15 PM52 °FClear.13 mph54%30.05 "Hg10 mi
9:55 PM52 °FClear.15 mph54%30.04 "Hg10 mi
9:35 PM54 °FClear.8 mph51%30.04 "Hg10 mi
9:15 PM54 °FSunny.9 mph54%30.03 "Hg10 mi
8:55 PM55 °FSunny.8 mph47%30.02 "Hg10 mi
8:35 PM55 °FSunny.8 mph51%30.02 "Hg10 mi
8:15 PM57 °FSunny.10 mph48%30.01 "Hg10 mi
7:55 PM57 °FSunny.12 mph48%30.00 "Hg10 mi
7:35 PM59 °FSunny.14 mph45%30.00 "Hg10 mi
7:15 PM61 °FSunny.10 mph42%30.01 "Hg10 mi
6:55 PM61 °FSunny.10 mph45%30.00 "Hg10 mi
6:35 PM63 °FSunny.10 mph42%30.00 "Hg10 mi
6:15 PM63 °FSunny.10 mph42%30.01 "Hg10 mi
5:55 PM63 °FSunny.16 mph42%30.00 "Hg10 mi
5:15 PM63 °FSunny.12 mph45%30.00 "Hg10 mi
4:55 PM63 °FSunny.15 mph45%30.00 "Hg10 mi
4:35 PM63 °FSunny.14 mph42%30.01 "Hg10 mi
4:15 PM63 °FSunny.10 mph45%30.00 "Hg10 mi
3:55 PM63 °FSunny.10 mph42%30.00 "Hg10 mi
3:35 PM63 °FSunny.13 mph42%30.00 "Hg10 mi
3:15 PM63 °FSunny.16 mph42%30.01 "Hg10 mi
2:55 PM63 °FSunny.10 mph42%30.01 "Hg10 mi
2:35 PM61 °FSunny.12 mph45%30.02 "Hg10 mi
2:15 PM61 °FSunny.8 mph45%30.03 "Hg10 mi
1:55 PM61 °FSunny.8 mph45%30.04 "Hg10 mi
1:35 PM59 °FSunny.8 mph45%30.05 "Hg10 mi
1:15 PM57 °FSunny.9 mph44%30.05 "Hg10 mi
12:55 PM57 °FSunny.7 mph44%30.06 "Hg10 mi
12:35 PM57 °FSunny.8 mph44%30.07 "Hg10 mi
12:15 PM57 °FSunny.7 mph44%30.07 "Hg10 mi
11:55 AM55 °FSunny.3 mph47%30.07 "Hg10 mi
11:35 AM55 °FSunny.5 mph47%30.07 "Hg10 mi
11:15 AM54 °FSunny.6 mph47%30.06 "Hg10 mi
10:55 AM52 °FSunny.7 mph50%30.05 "Hg10 mi
10:35 AM52 °FSunny.3 mph50%30.04 "Hg10 mi
10:15 AM48 °FSunny.6 mph54%30.03 "Hg10 mi
Weather by CustomWeather, © 2015

See weather overviewHow to use our weather pages